Regional Weather Roundup
Issued by NWS Goodland, KS

Home | Current Version | Previous Version | Graphics & Text | Print | Product List | Glossary On
Versions: 1 2 3 4 5 6 7 8 9 10 11 12 13 14 15 16 17 18 19 20 21 22 23 24 25 26 27 28 29 30 31 32 33 34 35 36 37 38 39 40 41 42 43 44 45 46 47 48 49 50
000
ASUS43 KGLD 031008
RWRGLD

GOODLAND FORECAST AREA HOURLY WEATHER ROUNDUP
NATIONAL WEATHER SERVICE GOODLAND KS
300 AM MST TUE MAR 03 2015

...OFFICIAL OBSERVATIONS...

CITY           SKY/WX    TMP DP  RH WIND       PRES   REMARKS
GOODLAND KS    CLOUDY    36  30  79 W14       29.55F
HILL CITY KS   CLOUDY    35  31  85 S7        29.56F
IMPERIAL NEB     N/A     28  24  85 N8        29.60R FOG
MCCOOK NEB     CLOUDY    30  23  75 N9        29.58S
AKRON CO       FOG       25  25 100 NW15G24   29.59R VSB 1/4 WCI  13
BURLINGTON CO  CLOUDY    33  28  81 W8        29.58S
LIMON CO       MOCLDY    39  16  39 W21G29    29.58F
$$

...UNOFFICIAL OBSERVATIONS...

CITY           SKY/WX    TMP DP  RH WIND       PRES   REMARKS
COLBY KS       CLEAR     34  34 100 W14       29.56R
GOVE KS          N/A     37  32  82 MISG        N/A
LENORA KS        N/A     28  32 100 CALM        N/A
SHARON SPRINGS   N/A     38  33  84 SW9G21      N/A
TRIBUNE KS     PTCLDY    41  37  87 SW21      29.62R
KIT CARSON CO    N/A     33  30  89 MISG        N/A
YUMA CO          N/A     28  26  92 NW12        N/A  WCI  18
$$



USA.gov is the U.S. government's official web portal to all federal, state and local government web resources and services.